Flag for Germany Weather past 2 weeks in Kaufbeuren, Bavaria, Germany

Now
55 °F

Cool.


Feels Like: 55 °F
Forecast: 44 / 73 °F
Wind: 5 mph from Northeast

Location: Altenstadt Airport

Current Time: Sep 16, 2014 at 11:57:12 PM

Latest Report: Sep 16, 2014 at 11:20 PM


Visibility: N/A

Pressure: 30.01 "Hg

Humidity: 100%

Dew point: 55 °F

Location of KaufbeurenLocation

Historic Weather in Kaufbeuren — Graph

°F

Kaufbeuren temperature yesterday

Maximum temperature yesterday: 64 °F (at 2:20 PM)
Minimum temperature yesterday: 54 °F (at 8:20 AM)
Average temperature yesterday: 57 °F

Past Weeks' High & Low Weather Summary

 TemperatureHumidityPressure
High75 °F (Sep 8, 2:20 PM)100% (Sep 2, 2:20 AM)30.18 "Hg (Sep 2, 2:20 AM)
Low46 °F (Sep 12, 12:20 AM)50% (Sep 8, 4:20 PM)29.95 "Hg (Sep 6, 3:20 PM)
Average57 °F89%30.05 "Hg
* Reported Sep 1 10:20 PM — Sep 16 10:20 PM, Kaufbeuren, Weather by CustomWeather, © 2014

Note: Actual official high and low records may vary slightly from our data, if they occured in-between our weather recording intervals... More about our weather records

Advertising

Kaufbeuren weather history for previous 24 hours

 ConditionsComfort  
Time TempWeatherWind HumidityBarometerVisibility
10:20 PM
Sep 16
55 °FCool.5 mph100%30.01 "HgN/A
9:20 PM57 °FCool.6 mph94%30.01 "HgN/A
8:20 PM59 °FPassing clouds.6 mph88%30.01 "HgN/A
7:20 PM59 °FPassing clouds.7 mph88%30.01 "HgN/A
6:20 PM64 °FPassing clouds.9 mph73%30.01 "HgN/A
5:20 PM66 °FPassing clouds.9 mph68%30.01 "HgN/A
4:20 PM66 °FPassing clouds.10 mph73%30.01 "HgN/A
3:20 PM68 °FPassing clouds.9 mph69%30.01 "HgN/A
2:20 PM66 °FPassing clouds.7 mph73%30.01 "HgN/A
1:20 PM66 °FPassing clouds.7 mph68%30.04 "HgN/A
12:20 PM66 °FPassing clouds.6 mph73%30.04 "HgN/A
11:20 AM66 °FPassing clouds.2 mph73%30.04 "HgN/A
10:20 AM59 °FPassing clouds.1 mph88%30.04 "HgN/A
9:20 AM54 °FPassing clouds.3 mph94%30.04 "HgN/A
8:20 AM48 °FPassing clouds.2 mph100%30.04 "HgN/A
7:46 AM46 °FFog.2 mph100%30.04 "HgN/A
7:20 AM46 °FLight fog.2 mph100%30.04 "Hg1 mi
6:20 AM46 °FFog.2 mph100%30.04 "Hg0 mi
5:20 AM46 °FFog.2 mph100%30.04 "Hg0 mi
4:20 AM48 °FCool.2 mph100%30.01 "HgN/A
3:20 AM50 °FCool.5 mph100%30.04 "HgN/A
2:20 AM50 °FCool.2 mph100%30.04 "HgN/A
1:20 AM50 °FCool.5 mph94%30.04 "HgN/A
12:20 AM52 °FCool.1 mph100%30.04 "HgN/A
11:20 PM
Sep 15
54 °FCool.1 mph100%30.04 "HgN/A
Weather by CustomWeather, © 2014

See weather overviewHow to use our weather pages